sat.trackr.live / text

‹ back to catalog

STARLINK-32626

NORAD 62123 · 2024-222K

PAYLOAD ACTIVE UNKNOWN

§ Identity

Operator
Country
US
Launch date
2024-11-27
Launch site
AFETR
Launch vehicle
Mass (kg)
RCS (m²)

Purposes: comms

External: N2YO · Heavens-Above · Gunter

§ Orbital elements

Epoch: 2026-09-18T21:18:26.074656Z

Period
94.27 min
Inclination
43.0022°
Eccentricity
0.0000901
Mean motion
15.27591011 rev/d
Perigee alt
482.4 km
Apogee alt
483.6 km
Semi-major
6,861.2 km
B*
6.6029e-4
RAAN
125.3125°
Arg perigee
261.3826°
Mean anomaly
98.6923°
Rev number
10,229

§ Raw data

STARLINK-326261 62123U 24222K   26261.88780179  .00017958  00000+0  66029-3 0  99962 62123  43.0022 125.3125 0000901 261.3826  98.6923 15.27591011102297

JSON: /api/v1/satellites/62123 · /tle

For live sub-satellite position, see the globe view (requires WebGL).

§ Visibility from observer

Set your observer location to see the next 7 days of passes ≥ 10°. The values pass through the URL so the page stays shareable.

No JS? Fill the form by hand. The geolocation button needs JavaScript.